Location: Bad Dürkheim
(49.4618°N, 8.1724°E)
Time: 05:44:00
(UTC+00:00)

Cosmos 1633 Rocket - Pass Details

Date: 14 June 2025
Orbit: 600 x 617 km, 82.5° (Epoch: 12 July)

Event Time Altitude Azimuth Distance (km) Brightness Sun altitude
Rises 20:53:13 0° 345° (NNW) 2,864 8.0 -9.5°
Reaches altitude 10° 20:55:29 10° 340° (NNW) 1,956 7.1 -9.7°
Maximum altitude 20:59:38 48° 266° (W) 791 3.8 -10.1°
Drops below altitude 10° 21:03:46 10° 192° (SSW) 1,942 5.2 -10.5°
Enters shadow 21:04:32 - 190° (S) 2,245 5.5 -10.6°
